SCP
0 0 0 0 0 0 0 0 1 1 1 1 1 1 1 1 0 0 0 0 0 0 0 0 0 0 0 0 0 0 0 0 0 0 0 0 0 0 0 0 0 0 0
0 0 0 0 0 0 0 0 0 1 1 1 1 1 1 1 0 0 0 0 0 0 0 0 0 0 0 0 0 0 0 0 0 0 0 0 0 0 0 0 0 0 0
0 0 0 0 0 0 0 0 0 0 1 1 1 1 1 1 1 0 0 0 0 0 0 0 0 0 0 0 0 0 0 0 0 0 0 0 0 0 0 0 0 0 0
0 0 0 0 0 0 0 0 0 0 0 1 1 1 1 1 0 0 0 0 0 0 0 0 0 0 0 0 0 0 0 0 0 0 0 0 0 0 0 0 0 0 0
0 0 0 0 0 0 0 0 0 0 0 0 1 1 1 0 0 0 0 0 0 0 0 0 0 0 0 0 0 0 0 0 0 0 0 0 0 0 0 0 0 0 0
0 0 0 0 0 0 0 0 0 0 0 0 0 0 0 0 0 0 0 0 0 0 0 0 0 0 0 0 0 0 0 0 0 0 0 0 0 0 0 0 0 0 0
0 0 0 0 0 0 0 0 0 0 0 0 0 0 0 0 0 0 0 0 0 0 0 0 0 0 0 0 0 0 0 0 0 0 0 0 0 0 0 0 0 0 0
0 0 0 0 0 0 0 0 0 0 0 0 0 0 0 0 0 0 0 0 0 0 0 0 0 0 0 0 0 0 0 0 0 0 0 0 0 0 0 0 0 0 0
0 0 0 0 0 0 0 0 0 0 0 0 0 0 0 0 0 0 0 0 0 0 0 0 0 0 0 0 0 0 0 0 0 0 0 0 0 0 0 0 0 0 0
0 0 0 0 0 0 0 0 0 0 0 0 0 0 0 0 0 0 0 0 0 0 0 0 0 0 0 0 0 0 0 0 0 0 0 0 0 0 0 0 0 0 0
0 0 0 0 0 0 0 0 0 0 0 0 0 0 0 0 0 0 0 0 0 0 0 0 0 0 0 0 0 0 0 0 0 0 0 0 0 0 0 0 0 0 0
0 0 0 0 0 0 0 0 0 0 0 0 0 0 0 0 0 0 0 0 0 0 0 0 0 0 0 0 0 0 0 0 0 0 0 0 0 0 0 0 0 0 0
0 0 0 0 0 0 0 0 0 0 0 0 0 0 0 0 0 0 0 0 0 0 0 0 0 0 0 0 0 0 0 0 0 0 0 0 0 0 0 0 0 0 0
0 0 0 0 0 0 0 0 0 0 0 0 0 0 0 0 0 0 0 0 0 0 0 0 0 0 0 0 0 0 0 0 0 0 0 0 0 0 0 0 0 0 0
0 0 0 0 0 0 0 0 0 0 0 0 0 0 0 0 0 0 0 0 0 0 0 0 0 0 0 0 0 0 0 0 0 0 0 0 0 0 0 0 0 0 0
0 0 0 0 0 0 0 0 0 0 0 0 0 0 0 0 0 0 0 0 0 0 0 0 0 0 0 0 0 0 0 0 0 0 0 0 0 0 0 0 0 0 0
0 0 0 0 0 0 0 0 0 0 0 0 0 0 0 0 0 0 0 0 0 0 0 0 0 0 0 0 0 0 0 0 0 0 0 0 0 0 0 0 0 0 0
0 0 0 0 0 0 0 0 0 0 0 0 0 0 0 0 0 0 0 0 0 0 0 0 0 0 0 0 0 0 0 0 0 0 0 0 0 0 0 0 0 0 0
0 0 0 0 0 0 0 0 0 0 0 0 0 0 0 0 0 0 0 0 0 0 0 0 0 0 0 0 0 0 0 0 0 0 0 0 0 0 0 0 0 0 0
0 0 0 0 0 0 0 0 0 0 0 0 0 0 0 0 0 0 0 0 0 0 0 0 0 0 0 0 0 0 0 0 0 0 0 0 0 0 0 0 0 0 0
0 0 0 0 0 0 0 0 0 0 0 0 0 0 0 0 0 0 0 0 0 0 0 0 0 0 0 0 0 0 0 0 0 0 0 0 0 0 0 0 0 0 0
0 0 0 0 0 0 0 0 0 0 0 0 0 0 0 0 0 0 0 0 0 0 0 0 0 0 0 0 0 0 0 0 0 0 0 0 0 0 0 0 0 0 0
0 0 0 0 0 0 0 0 0 0 0 0 0 0 0 0 0 0 0 0 0 0 0 0 0 0 0 0 0 0 0 0 0 0 0 0 0 0 0 0 0 0 0
0 0 0 0 0 0 0 0 0 0 0 0 0 0 0 0 0 0 0 0 0 0 0 0 0 0 0 0 0 0 0 0 0 0 0 0 0 0 0 0 0 0 0
0 0 0 0 0 0 0 0 0 0 0 0 0 0 0 0 0 0 0 0 0 0 0 0 0 0 0 0 0 0 0 0 0 0 0 0 0 0 0 0 0 0 0
0 0 0 0 0 0 0 0 0 0 0 0 0 0 0 0 0 0 0 0 0 0 0 0 0 0 0 0 0 0 0 0 0 0 0 0 0 0 0 0 0 0 0
Wind_Speed
5 4 4 4 4 4 4 5 6 7 6 5 5 5 5 4 4 4 5 6 7 7 7 5 6 6 5 6 6 5 5 4 3 3 1 2 2 4 4 4 3 5 6
4 4 3 3 3 3 3 2 3 5 5 4 4 4 4 3 4 4 5 6 6 7 7 7 6 6 5 6 7 6 5 4 5 4 3 2 3 4 5 4 4 5 5
4 4 4 3 2 2 2 1 1 2 3 3 2 2 2 2 3 4 5 6 7 7 7 8 7 7 7 7 8 8 8 6 5 5 5 5 6 3 3 5 5 4 4
2 2 3 3 3 2 2 1 1 1 1 2 3 3 4 4 5 4 4 6 8 8 8 8 8 8 7 7 8 8 7 7 5 4 4 3 3 4 2 2 3 4 3
3 3 3 3 4 3 2 2 2 1 1 0 1 3 3 4 3 3 4 5 6 8 8 8 8 8 7 8 8 8 8 7 7 5 4 4 2 2 4 3 3 2 2
4 4 4 4 4 3 2 2 2 2 2 2 1 2 3 3 3 4 4 4 3 4 7 7 7 7 7 8 8 8 9 8 8 6 5 5 4 5 5 4 3 3 2
5 5 5 4 4 3 2 1 1 2 2 2 2 2 2 3 4 4 4 4 3 2 4 5 5 5 6 6 6 6 7 7 7 7 6 5 4 3 3 4 3 3 1
4 4 5 4 4 4 3 2 2 2 3 3 2 3 2 1 2 3 3 3 2 2 2 3 3 4 4 4 5 4 5 4 5 6 5 3 3 3 3 3 4 3 1
5 5 5 5 4 4 4 3 3 3 4 4 4 3 3 3 3 3 2 2 2 1 1 1 1 1 2 2 3 3 3 3 3 3 3 2 2 2 2 2 3 5 5
5 5 5 5 4 4 3 4 4 4 4 4 4 3 4 4 3 3 2 2 2 2 1 1 0 0 1 1 2 2 2 3 2 2 4 4 3 3 2 2 2 1 3
5 5 4 4 4 3 3 4 4 4 4 4 4 4 4 5 5 4 4 3 3 3 2 2 1 1 1 2 2 2 3 4 4 4 5 5 5 4 3 3 3 2 2
5 4 4 4 3 3 4 4 4 4 4 4 4 4 5 5 6 6 6 5 5 5 5 5 5 5 5 4 4 4 5 5 5 5 6 6 5 5 4 3 3 3 2
5 4 4 3 3 3 3 3 4 4 4 4 4 5 5 6 6 6 6 7 7 7 7 7 7 7 7 7 7 7 7 6 6 6 6 6 6 5 4 4 3 2 2
4 4 3 3 3 3 3 4 4 4 4 4 5 5 6 6 6 6 7 7 7 7 8 8 8 7 7 7 7 8 8 8 7 7 6 6 5 5 4 3 3 2 2
4 4 3 3 3 3 3 3 3 3 4 5 5 5 5 5 6 6 7 7 7 8 7 8 8 7 7 7 8 8 8 8 8 7 6 6 6 6 4 3 2 2 1
4 4 4 4 3 3 3 3 3 3 4 5 5 5 5 6 6 6 7 7 7 8 8 8 8 8 7 11 13 10 7 7 7 7 6 5 5 5 5 4 2 1 1
4 4 4 4 4 3 3 3 3 4 5 5 5 5 5 6 6 7 7 7 7 8 8 8 8 8 9 13 13 13 8 7 6 5 4 3 4 4 3 2 2 2 3
4 4 4 4 4 4 3 4 4 4 5 5 5 5 5 6 6 6 7 6 6 6 7 7 7 7 9 13 12 12 7 6 5 4 4 3 3 2 2 1 1 2 3
5 4 4 4 4 4 4 4 5 4 5 5 4 4 5 5 6 6 6 5 6 6 6 5 6 7 8 11 10 9 4 4 4 3 3 3 2 1 2 2 2 3 4
5 4 4 5 4 4 4 5 5 5 5 4 4 4 5 5 6 6 5 5 5 5 5 5 5 6 5 8 9 8 3 3 2 1 1 1 1 3 4 2 2 3 3
5 5 4 4 4 4 4 5 5 5 5 5 5 5 5 5 5 5 4 4 4 5 5 5 5 5 5 6 7 7 3 2 2 1 1 1 3 5 7 5 2 5 5
4 4 4 4 4 4 5 5 5 5 5 5 5 5 5 4 5 5 4 4 4 4 4 4 4 3 3 4 5 6 5 4 2 1 1 1 5 7 8 5 6 8 7
4 4 5 5 4 3 4 6 5 6 6 6 5 5 5 4 4 4 4 3 3 3 3 3 2 2 2 2 4 4 4 5 2 1 4 6 7 7 5 7 8 6 2
5 5 5 5 5 4 4 5 6 6 6 6 5 4 4 4 3 2 2 2 2 2 2 2 2 1 1 1 1 2 2 3 3 2 4 7 7 5 6 6 4 2 2
4 5 5 5 6 5 5 6 6 7 6 6 5 4 4 4 3 3 3 3 2 3 3 2 2 2 1 0 2 2 1 2 2 3 2 2 2 2 2 2 3 2 3
5 5 5 5 6 6 6 6 6 7 7 6 5 4 3 3 3 3 3 6 5 6 6 5 3 2 1 1 2 4 5 6 6 4 2 2 2 2 3 3 3 3 3
Wind_Direction
204 178 173 175 174 181 192 192 186 189 184 182 188 194 204 206 208 213 212 207 202 200 197 197 199 196 194 191 185 179 190 194 165 146 196 261 221 202 203 200 189 181 174
189 173 161 159 164 169 179 200 199 189 185 184 187 189 190 204 207 206 218 221 215 208 206 204 201 199 198 196 193 185 182 190 174 156 146 220 258 251 215 197 201 193 179
197 175 165 152 131 126 148 196 226 202 181 172 170 175 187 202 209 212 214 219 222 222 215 212 208 205 202 205 202 193 187 193 195 179 167 178 211 217 226 211 199 192 182
193 153 133 125 119 98 61 24 328 304 178 168 172 183 200 213 220 219 219 216 216 222 221 217 213 212 209 210 208 203 198 185 193 207 217 207 166 163 201 258 213 188 179
150 116 96 95 90 79 54 18 352 343 351 257 195 201 222 229 237 237 235 227 221 220 222 219 216 216 215 214 211 208 206 200 195 189 189 216 229 191 162 202 223 216 197
124 117 112 110 102 93 68 31 7 357 359 347 310 246 243 247 258 262 255 246 235 225 224 224 222 221 217 216 216 213 211 211 206 200 188 180 187 198 192 187 181 202 214
140 141 138 133 119 108 93 61 38 9 360 344 322 298 274 260 250 254 257 261 252 239 231 225 226 225 223 221 216 214 216 213 209 207 204 199 198 171 178 185 170 160 155
130 122 116 108 104 96 79 57 43 25 17 7 344 335 326 299 283 275 272 270 263 252 252 234 231 228 222 221 216 216 216 209 210 209 198 187 185 172 167 170 160 155 168
124 117 107 95 88 79 65 50 39 34 27 13 3 358 352 341 315 304 300 292 294 298 296 275 240 230 218 213 204 208 204 192 195 187 172 155 131 124 133 136 160 168 188
122 113 104 93 82 76 64 49 41 39 29 18 12 11 3 354 345 345 338 332 332 344 347 331 202 175 167 162 164 163 155 147 144 135 134 125 114 103 96 104 101 137 174
119 111 105 96 89 77 62 52 40 39 30 25 22 19 14 7 3 7 10 15 20 23 37 44 60 69 69 88 106 119 126 133 121 113 120 117 113 113 102 97 101 91 106
112 111 110 103 91 77 63 52 43 41 32 26 33 30 24 22 27 29 26 30 37 39 44 51 59 62 61 63 77 89 93 104 109 107 110 111 109 105 101 100 95 95 89
129 122 114 104 89 75 64 57 54 44 34 34 41 42 36 38 39 36 36 42 48 50 52 57 60 61 64 67 70 77 82 84 90 99 106 108 110 106 101 99 98 97 96
135 131 116 103 95 80 67 63 58 46 42 47 52 51 46 46 47 46 46 48 55 58 59 62 63 65 68 71 76 81 83 84 83 85 93 99 105 110 113 111 118 125 120
139 136 127 116 109 95 81 73 66 55 55 61 62 59 56 54 55 54 54 56 59 64 65 67 67 66 69 76 84 86 89 89 86 80 80 87 100 111 111 109 118 114 112
149 139 131 128 122 110 98 89 78 69 71 72 68 65 65 64 61 61 62 63 64 64 67 68 71 70 74 89 91 91 87 89 91 89 84 92 94 100 97 108 126 144 153
142 138 136 127 119 114 109 107 97 84 80 78 73 72 74 74 70 72 69 67 68 69 70 71 74 75 82 88 89 90 89 88 89 92 91 85 83 75 60 43 22 331 296
124 124 123 119 115 112 108 102 97 94 92 86 83 83 84 85 83 79 77 74 73 74 75 75 78 81 83 86 87 87 85 85 82 79 79 80 73 75 61 17 345 300 293
111 114 116 119 116 120 121 112 106 100 94 89 87 90 96 96 92 87 82 80 82 80 78 79 83 85 85 84 83 78 79 80 77 74 74 76 62 19 347 339 310 303 298
97 104 107 113 120 124 122 118 115 108 103 99 96 96 100 101 99 96 94 91 92 93 92 83 79 84 86 83 77 70 73 74 69 63 72 74 25 330 326 328 319 308 302
108 114 119 122 124 123 123 122 116 113 112 109 104 100 100 103 105 101 97 98 95 91 88 86 79 80 86 79 72 62 63 62 55 36 12 328 332 327 321 322 310 292 302
131 134 132 126 120 125 129 127 126 123 120 117 112 109 108 112 114 112 107 105 106 101 96 93 83 72 77 81 68 55 46 40 41 5 350 327 326 324 321 318 305 309 319
152 147 143 136 132 131 132 136 137 134 128 123 120 120 118 116 122 125 128 125 116 111 109 106 103 89 72 69 62 42 27 16 16 341 331 324 322 324 322 314 315 322 320
159 157 154 151 152 144 137 138 140 140 136 133 133 136 134 132 123 118 121 118 112 108 111 113 113 106 81 62 36 9 360 357 355 345 323 320 316 313 302 308 316 300 267
162 163 166 166 161 153 150 146 147 146 144 145 148 151 146 137 121 98 85 103 86 118 126 125 121 121 130 1 12 8 357 345 320 330 320 312 316 321 317 313 306 303 309
167 170 174 170 162 158 158 158 158 157 156 157 158 154 148 141 136 126 97 83 104 95 96 104 109 95 113 24 350 337 330 325 321 331 316 310 315 313 313 314 314 313 310